Погода в Пчельне

Россия / Тульская область     53°52′42″N   36°41′28″E
темп.,
°C
ветер,
м/с
пор.,
м/с
влажн.,
%
обл.,
%
осадки,
мм/ч
давл.,
гПа
погр.,
м
7 марта, вс
вс700:00−11зюз379217 0.0 1017128
03:00−11юз512909 0.0 1014291
06:00−8юз7168673 0.0 1010537
09:00−6юз10188487 0.1 1006930
12:00−3зюз111891100 0.6 10011119
15:00−1зюз101791100 1.4 9981259
18:00−1з91596100 1.3 996961
21:00−4зсз8158090 2.7 998865
8 марта, пн
пн800:00−7зюз411842 0.0 1000256
03:00−7зюз5128528 0.0 1000370
06:00−7зюз61388100 0.0 999578
09:00−6з7138995 0.1 1000756
12:00−5зсз6108393 0.1 10031035
15:00−4зсз588297 0.1 10051013
18:00−8сз348863 0.1 100678
21:00−9сз249480 0.1 1009101
9 марта, вт
вт900:00−10ссз239586 0.1 101055
03:00−13ссз359689 0.1 1012118
06:00−14ссз369685 0.1 1014149
09:00−14ссз479380 0.1 1016327
12:00−11ссз468494 0.0 1018623
15:00−10сз468093 0.0 1019884
18:00−12ссз3589100 0.1 1020186
21:00−16ссз349288 0.1 102354
10 марта, ср
ср1000:00−18ссз239311 0.0 102428
03:00−20с22975 0.0 102623
06:00−22с12988 0.0 102720
09:00−19всв118829 0.0 102864
12:00−14юв117598 0.0 1028264
15:00−12ююв237499 0.0 1027359
18:00−13юв2495100 0.2 1027248
21:00−14юв3696100 0.6 1028181
11 марта, чт
чт1100:00−14юв3696100 0.6 1028203
03:00−15юв4796100 0.9 1029212
06:00−15юв4696100 0.4 1029222
09:00−14ююв4594100 0.6 1029242
12:00−10ююв469299 0.2 1029353
15:00−8ю4691100 0.3 1027433
18:00−10ююв3695100 0.1 1027197
21:00−13ю489676 0.1 1028139